• In United Kingdom
  • List of Countries
  • For 7 days
  • Water Temperature
  • Satellite Maps
  • Weather Map
  • Weather Widgets
  • user-avatar
    Login

    Hourly Weather Yerevan

    Today, 18 February, Sunday

    Time Temperature Precipitation Wind Pressure Humidity
    00:00 +8°C° 0.1 mm 2 mps 687 mmHg 69%
    01:00 +8°C° 0.5 mm 2 mps 686 mmHg 71%
    02:00 +8°C° 0.5 mm 2 mps 686 mmHg 73%
    03:00 +7°C° 0 mm 2 mps 685 mmHg 75%
    04:00 +7°C° 0.7 mm 2 mps 685 mmHg 76%
    05:00 +7°C° 0.7 mm 2 mps 685 mmHg 77%
    06:00 +7°C° 0.7 mm 3 mps 685 mmHg 78%
    07:00 +7°C° 1.4 mm 3 mps 685 mmHg 78%
    08:00 +7°C° 1.4 mm 3 mps 685 mmHg 79%
    09:00 +7°C° 0 mm 3 mps 684 mmHg 79%
    10:00 +7°C° 1.2 mm 3 mps 684 mmHg 78%
    11:00 +7°C° 1.2 mm 3 mps 684 mmHg 78%
    12:00 +6°C° 1.2 mm 4 mps 683 mmHg 77%
    13:00 +7°C° 0.6 mm 4 mps 683 mmHg 76%
    14:00 +7°C° 0.6 mm 4 mps 683 mmHg 74%
    15:00 +7°C° 0 mm 4 mps 682 mmHg 72%
    16:00 +7°C° 0.7 mm 4 mps 682 mmHg 74%
    17:00 +7°C° 0.7 mm 3 mps 682 mmHg 75%
    18:00 +7°C° 0.7 mm 3 mps 683 mmHg 77%
    19:00 +7°C° 0.6 mm 3 mps 683 mmHg 77%
    20:00 +5°C° 0.6 mm 3 mps 683 mmHg 78%
    21:00 +5°C° 0.6 mm 3 mps 684 mmHg 79%
    22:00 +5°C° 0.4 mm 3 mps 684 mmHg 79%
    23:00 +5°C° 0.4 mm 3 mps 685 mmHg 80%

    Tomorrow, 19 February, Monday

    Time Temperature Precipitation Wind Pressure Humidity
    00:00 +5°C° 0.4 mm 3 mps 685 mmHg 80%
    01:00 +5°C° 0.3 mm 2 mps 685 mmHg 80%
    02:00 +5°C° 0.3 mm 2 mps 685 mmHg 80%
    03:00 +5°C° 0.3 mm 2 mps 685 mmHg 81%
    04:00 +4°C° 0.2 mm 2 mps 686 mmHg 80%
    05:00 +4°C° 0.2 mm 2 mps 686 mmHg 80%
    06:00 +4°C° 0.2 mm 2 mps 686 mmHg 80%
    07:00 +5°C° 0.2 mm 2 mps 686 mmHg 77%
    08:00 +5°C° 0.2 mm 2 mps 687 mmHg 75%
    09:00 +6°C° 0.2 mm 2 mps 687 mmHg 73%
    10:00 +6°C° 0.1 mm 2 mps 687 mmHg 71%
    11:00 +7°C° 0.1 mm 2 mps 687 mmHg 69%
    12:00 +8°C° 0.1 mm 2 mps 687 mmHg 68%
    13:00 +8°C° 0.1 mm 2 mps 687 mmHg 66%
    14:00 +9°C° 0.1 mm 1 mps 686 mmHg 65%
    15:00 +10°C° 0.1 mm 1 mps 686 mmHg 63%
    16:00 +9°C° 0 mm 1 mps 687 mmHg 64%
    17:00 +8°C° 0 mm 1 mps 687 mmHg 66%
    18:00 +7°C° 0 mm 1 mps 687 mmHg 67%
    19:00 +6°C° 0 mm 1 mps 688 mmHg 67%
    20:00 +6°C° 0 mm 1 mps 688 mmHg 68%
    21:00 +5°C° 0 mm 1 mps 688 mmHg 68%
    22:00 +5°C° 0 mm 1 mps 689 mmHg 68%
    23:00 +4°C° 0 mm 1 mps 689 mmHg 68%

    Day after tomorrow, 20 February, Tuesday

    Time Temperature Precipitation Wind Pressure Humidity
    00:00 +4°C° 0 mm 1 mps 689 mmHg 67%
    01:00 +4°C° 0 mm 1 mps 689 mmHg 67%
    02:00 +4°C° 0 mm 1 mps 689 mmHg 67%
    03:00 +4°C° 0 mm 1 mps 689 mmHg 67%
    04:00 +4°C° 0 mm 1 mps 689 mmHg 68%
    05:00 +2°C° 0 mm 2 mps 689 mmHg 68%
    06:00 +2°C° 0 mm 2 mps 689 mmHg 68%
    07:00 +3°C° 0 mm 2 mps 689 mmHg 67%
    08:00 +5°C° 0 mm 2 mps 689 mmHg 65%
    09:00 +6°C° 0 mm 2 mps 690 mmHg 64%
    10:00 +7°C° 0 mm 2 mps 689 mmHg 62%
    11:00 +8°C° 0 mm 2 mps 689 mmHg 60%
    12:00 +9°C° 0 mm 2 mps 689 mmHg 59%
    13:00 +9°C° 0 mm 2 mps 688 mmHg 57%
    14:00 +9°C° 0 mm 2 mps 688 mmHg 56%
    15:00 +10°C° 0 mm 2 mps 687 mmHg 55%
    16:00 +9°C° 0 mm 2 mps 688 mmHg 57%
    17:00 +7°C° 0 mm 2 mps 688 mmHg 58%
    18:00 +6°C° 0 mm 2 mps 688 mmHg 60%
    19:00 +6°C° 0 mm 2 mps 688 mmHg 60%
    20:00 +5°C° 0 mm 2 mps 688 mmHg 60%
    21:00 +6°C° 0 mm 1 mps 689 mmHg 60%
    22:00 +5°C° 0 mm 1 mps 689 mmHg 61%
    23:00 +5°C° 0 mm 1 mps 689 mmHg 62%

    21 February, Wednesday

    Time Temperature Precipitation Wind Pressure Humidity
    00:00 +5°C° 0 mm 1 mps 689 mmHg 63%
    01:00 +5°C° 0 mm 1 mps 689 mmHg 64%
    02:00 +5°C° 0 mm 1 mps 689 mmHg 65%
    03:00 +4°C° 0 mm 1 mps 689 mmHg 66%
    04:00 +4°C° 0 mm 1 mps 689 mmHg 67%
    05:00 +4°C° 0 mm 1 mps 689 mmHg 68%
    06:00 +4°C° 0 mm 1 mps 689 mmHg 68%
    07:00 +5°C° 0.1 mm 1 mps 689 mmHg 66%
    08:00 +6°C° 0.1 mm 1 mps 689 mmHg 64%
    09:00 +7°C° 0.1 mm 1 mps 689 mmHg 63%
    10:00 +8°C° 0 mm 1 mps 689 mmHg 62%
    11:00 +8°C° 0 mm 2 mps 688 mmHg 60%
    12:00 +9°C° 0 mm 2 mps 688 mmHg 59%
    13:00 +9°C° 0 mm 2 mps 687 mmHg 59%
    14:00 +9°C° 0 mm 2 mps 687 mmHg 58%
    15:00 +10°C° 0 mm 2 mps 687 mmHg 57%
    16:00 +9°C° 0 mm 2 mps 687 mmHg 58%
    17:00 +8°C° 0 mm 2 mps 687 mmHg 60%
    18:00 +7°C° 0 mm 2 mps 687 mmHg 61%
    19:00 +7°C° 0 mm 1 mps 688 mmHg 62%
    20:00 +7°C° 0 mm 1 mps 688 mmHg 63%
    21:00 +6°C° 0 mm 1 mps 688 mmHg 63%
    22:00 +6°C° 0 mm 1 mps 688 mmHg 64%
    23:00 +6°C° 0 mm 1 mps 688 mmHg 64%

    22 February, Thursday

    Time Temperature Precipitation Wind Pressure Humidity
    00:00 +6°C° 0 mm 1 mps 688 mmHg 64%
    01:00 +5°C° 0 mm 1 mps 688 mmHg 65%
    02:00 +5°C° 0 mm 1 mps 688 mmHg 65%
    03:00 +5°C° 0 mm 1 mps 688 mmHg 66%
    04:00 +5°C° 0 mm 1 mps 688 mmHg 67%
    05:00 +5°C° 0 mm 1 mps 688 mmHg 68%
    06:00 +5°C° 0 mm 1 mps 688 mmHg 69%
    07:00 +6°C° 0.1 mm 1 mps 688 mmHg 67%
    08:00 +6°C° 0.1 mm 1 mps 688 mmHg 65%
    09:00 +7°C° 0.1 mm 1 mps 688 mmHg 64%
    10:00 +8°C° 0.1 mm 1 mps 688 mmHg 62%
    11:00 +9°C° 0.1 mm 1 mps 687 mmHg 61%
    12:00 +10°C° 0.1 mm 1 mps 687 mmHg 60%
    13:00 +10°C° 0 mm 1 mps 686 mmHg 59%
    14:00 +11°C° 0 mm 1 mps 686 mmHg 58%
    15:00 +11°C° 0 mm 1 mps 685 mmHg 57%
    16:00 +10°C° 0 mm 1 mps 686 mmHg 59%
    17:00 +9°C° 0 mm 1 mps 686 mmHg 61%
    18:00 +8°C° 0 mm 1 mps 686 mmHg 63%
    19:00 +8°C° 0.1 mm 1 mps 686 mmHg 64%
    20:00 +8°C° 0.1 mm 1 mps 686 mmHg 65%
    21:00 +7°C° 0.1 mm 1 mps 687 mmHg 66%
    22:00 +6°C° 0.1 mm 0 mps 687 mmHg 67%
    23:00 +6°C° 0.1 mm 0 mps 687 mmHg 68%

    23 February, Friday

    Time Temperature Precipitation Wind Pressure Humidity
    00:00 +6°C° 0.1 mm 0 mps 687 mmHg 68%
    01:00 +5°C° 0.1 mm 0 mps 686 mmHg 69%
    02:00 +5°C° 0.1 mm 0 mps 686 mmHg 70%
    03:00 +5°C° 0.1 mm 0 mps 686 mmHg 70%
    04:00 +6°C° 0.1 mm 1 mps 686 mmHg 71%
    05:00 +5°C° 0.1 mm 1 mps 687 mmHg 71%
    06:00 +5°C° 0.1 mm 1 mps 687 mmHg 72%
    07:00 +6°C° 0 mm 1 mps 687 mmHg 69%
    08:00 +7°C° 0 mm 1 mps 687 mmHg 67%
    09:00 +8°C° 0 mm 1 mps 688 mmHg 65%
    10:00 +8°C° 0 mm 1 mps 687 mmHg 63%
    11:00 +9°C° 0 mm 1 mps 687 mmHg 62%
    12:00 +10°C° 0 mm 1 mps 687 mmHg 61%
    13:00 +10°C° 0 mm 1 mps 686 mmHg 60%
    14:00 +11°C° 0 mm 1 mps 686 mmHg 58%
    15:00 +11°C° 0 mm 1 mps 686 mmHg 57%
    16:00 +10°C° 0 mm 1 mps 686 mmHg 60%
    17:00 +9°C° 0 mm 1 mps 686 mmHg 62%
    18:00 +8°C° 0 mm 0 mps 686 mmHg 64%
    19:00 +8°C° 0 mm 1 mps 687 mmHg 66%
    20:00 +8°C° 0 mm 1 mps 687 mmHg 67%
    21:00 +7°C° 0 mm 1 mps 688 mmHg 69%
    22:00 +7°C° 0 mm 1 mps 688 mmHg 70%
    23:00 +6°C° 0 mm 1 mps 688 mmHg 70%
    Show more